Location: Unspecified
(0.0000°N, 0.0000°E)
Time: 01:12:44
(UTC+00:00)

deb Kosmos-1275 - Pass Details

Date: 09 March 2026
Orbit: 928 x 975 km, 82.8° (Epoch: 14 April)

Event Time Altitude Azimuth Distance (km) Brightness Sun altitude
Rises 19:33:24 0° 200° (SSW) 3,577 ? -20.7°
Reaches altitude 10° 19:36:04 10° 209° (SSW) 2,630 ? -21.3°
Maximum altitude 19:41:28 36° 273° (W) 1,440 ? -22.7°
Drops below altitude 10° 19:46:52 10° 338° (NNW) 2,626 ? -24.0°
Sets 19:49:33 0° 347° (NNW) 3,571 ? -24.7°
